Anoka County, MN

8:18 AM CST on February 24, 2018 (GMT -0600)
Anoka County / Blaine Airport

Weather History for KANE - August, 2014

Change the Weather History Date:

Wednesday, August 13, 2014

  Actual Average Record
Temperature  
Mean Temperature 71 °F -  
Max Temperature 80 °F 76 °F 84 °F (2007)
Min Temperature 62 °F 57 °F 44 °F (2004)
Cooling Degree Days 6    
Growing Degree Days 21 (Base 50)    
Moisture  
Dew Point 60 °F    
Average Humidity 76    
Maximum Humidity 94    
Minimum Humidity 45    
Precipitation  
Precipitation 0.00 in - - ()
Sea Level Pressure  
Sea Level Pressure 30.05 in    
Wind  
Wind Speed 5 mph (WNW)    
Max Wind Speed 12 mph    
Max Gust Speed -    
Visibility 10 miles    
Events      
Averages and records for this station are not official NWS values.
T = Trace of Precipitation, MM = Missing Value Source: NWS Daily Summary

Daily Weather History Graph

Daily Weather History Graph

Search for Another Location

Airport or City:

Trip Planner

Search our weather history database for the weather conditions in past years. The results will help you decide how hot, cold, wet, or windy it might be!

Date:

Astronomy

Aug. 13, 2014 Rise Set
Actual Time 6:11 AM CDT 8:22 PM CDT
Civil Twilight 5:39 AM CDT 8:54 PM CDT
Nautical Twilight 4:59 AM CDT 9:34 PM CDT
Astronomical Twilight 4:15 AM CDT 10:18 PM CDT
Moon 9:54 PM CDT (8/13) 9:52 AM CDT (8/13)
Length of Visible Light 15h 15m
Length of Day
14h 10m
Waning Gibbous, 87% of the Moon is Illuminated
Aug 13
Waning Gibbous
Aug 17
Last Quarter
Aug 25
New
Sep 2
First Quarter
Sep 8
Full

Hourly Weather History & Observations

Time (CDT) Temp. Heat Index Dew Point Humidity Pressure Visibility Wind Dir Wind Speed Gust Speed Precip Events Conditions
12:14 AM 68.0 °F - 59.0 °F 73% 30.02 in 10.0 mi West 4.6 mph - N/A   Clear
12:34 AM 68.0 °F - 59.0 °F 73% 30.02 in 10.0 mi West 5.8 mph - N/A   Clear
12:54 AM 68.0 °F - 59.0 °F 73% 30.02 in 10.0 mi WSW 5.8 mph - N/A   Clear
1:14 AM 68.0 °F - 59.0 °F 73% 30.02 in 10.0 mi WSW 5.8 mph - N/A   Clear
1:34 AM 66.2 °F - 59.0 °F 78% 30.02 in 10.0 mi West 5.8 mph - N/A   Clear
1:54 AM 66.2 °F - 59.0 °F 78% 30.02 in 10.0 mi WSW 6.9 mph - N/A   Clear
2:14 AM 66.2 °F - 60.8 °F 83% 30.01 in 10.0 mi West 6.9 mph - N/A   Clear
2:34 AM 66.2 °F - 60.8 °F 83% 30.02 in 10.0 mi West 6.9 mph - N/A   Clear
2:54 AM 64.4 °F - 60.8 °F 88% 30.02 in 10.0 mi West 6.9 mph - N/A   Clear
3:14 AM 64.4 °F - 60.8 °F 88% 30.02 in 10.0 mi West 4.6 mph - N/A   Clear
3:34 AM 64.4 °F - 59.0 °F 83% 30.02 in 10.0 mi West 3.5 mph - N/A   Clear
3:54 AM 62.6 °F - 59.0 °F 88% 30.02 in 10.0 mi West 3.5 mph - N/A   Clear
4:14 AM 64.4 °F - 60.8 °F 88% 30.02 in 10.0 mi Calm Calm - N/A   Clear
4:34 AM 64.4 °F - 60.8 °F 88% 30.02 in 10.0 mi Calm Calm - N/A   Clear
4:54 AM 62.6 °F - 60.8 °F 94% 30.03 in 10.0 mi Calm Calm - N/A   Scattered Clouds
5:14 AM 62.6 °F - 60.8 °F 94% 30.04 in 10.0 mi Calm Calm - N/A   Mostly Cloudy
5:34 AM 64.4 °F - 60.8 °F 88% 30.04 in 10.0 mi Calm Calm - N/A   Overcast
5:54 AM 64.4 °F - 60.8 °F 88% 30.05 in 10.0 mi Calm Calm - N/A   Overcast
6:14 AM 64.4 °F - 60.8 °F 88% 30.05 in 10.0 mi West 3.5 mph - N/A   Mostly Cloudy
6:34 AM 62.6 °F - 60.8 °F 94% 30.06 in 10.0 mi West 3.5 mph - N/A   Scattered Clouds
6:45 AM 62.6 °F - 60.8 °F 94% 30.06 in 10.0 mi West 3.5 mph - N/A   Scattered Clouds
7:45 AM 66.2 °F - 60.8 °F 83% - 10.0 mi West 5.8 mph - N/A   Clear
10:45 AM 73.4 °F - 62.6 °F 69% - 10.0 mi NW 4.6 mph - N/A   Clear
11:45 AM 77.0 °F - 62.6 °F 61% - 10.0 mi NNE 5.8 mph - N/A   Scattered Clouds
12:45 PM 78.8 °F - 62.6 °F 57% 30.08 in 10.0 mi NE 5.8 mph - N/A   Scattered Clouds
1:45 PM 78.8 °F - 62.6 °F 57% 30.08 in 10.0 mi North 9.2 mph - N/A   Scattered Clouds
2:50 PM 78.8 °F - 59.0 °F 51% 30.07 in 10.0 mi North 8.1 mph - N/A   Scattered Clouds
3:50 PM 80.6 °F 81.5 °F 60.8 °F 51% 30.06 in 10.0 mi NNE 5.8 mph - N/A   Scattered Clouds
4:45 PM 80.6 °F 81.5 °F 60.8 °F 51% 30.06 in 10.0 mi NNE 11.5 mph - N/A   Scattered Clouds
5:45 PM 80.6 °F 80.8 °F 57.2 °F 45% 30.06 in 3010.0 mi North - - N/A   Partly Cloudy
6:45 PM 78.8 °F - 57.2 °F 47% 30.06 in 10.0 mi NNE 9.2 mph - N/A   Scattered Clouds
9:54 PM 69.8 °F - 57.2 °F 64% 30.08 in 10.0 mi Calm Calm - N/A   Clear
11:14 PM 64.4 °F - 57.2 °F 77% 30.10 in 10.0 mi Calm Calm - N/A   Clear
11:35 PM 62.6 °F - 57.2 °F 82% 30.11 in 10.0 mi East 3.5 mph - N/A   Scattered Clouds
11:54 PM 62.6 °F - 57.2 °F 82% 30.10 in 10.0 mi Calm Calm - N/A   Scattered Clouds